Preview of NWS' New Version of Forecast
This preview is not operational and should not be used for support decisions.
Latest weather observations around

Fort Myers, Page Field (KFMY)

Using English Units (Switch to International System of Units)
Date/ Time (EDT) Wind (mph) Vis. (mi) Weather Sky Cond. Temp (°F) Rel. Humidity Wind Chill (°F) Heat Index (°F) Pressure Precip. (in)
Air Dwpt 6 hour Altimeter (inHg) Sea level (inHg) 1 hr 3 hr 6 hr
Max Min
Jun 24 20:53 WNW 8 10 Clear   86 73     65%   93 30.01 30.01      
Jun 24 19:53 NW 8 10 Clear CLR 89 66     47%   92 30 30.01      
Jun 24 18:53 NW 13 10 Clear CLR 91 72     54%   99 30 30      
Jun 24 17:53 WNW 11 10 Clear   93 73     52%   102 29.99 30      
Jun 24 16:53 WNW 11 10 Clear CLR 94 72     49%   102 30 30      
Jun 24 15:53 W 10 10 Clear CLR 94 72     49%   102 30.01 30.01      
Jun 24 14:53 W 11 10 Clear CLR 93 73     52%   102 30.02 30.02      
Jun 24 13:53 W 10 10 Mostly Clear FEW047 93        %     30.03 30.03      
Jun 24 12:53 5 10 Clear CLR 92        %     30.04 30.04      
Jun 24 11:53 WNW 7 10 Clear CLR 91 67     45%   94 30.05 30.05      
Jun 24 10:53 WNW 5 10 Mostly Clear FEW029 89 69     52%   94 30.05 30.05      
Jun 24 09:53 WSW 6 10 Clear CLR 88 68     52%   92 30.05 30.05      
Jun 24 08:53 WNW 5 10 Clear CLR 85 70     61%   89 30.04 30.05      
Jun 24 07:53 Calm 10 Clear CLR 82 72     70%   87 30.02        
Jun 24 06:53 Calm 10 Clear CLR 79 73     82%   82 30.02 30.02      
Jun 24 05:53 Calm 10 Clear CLR 81 72     74%   85 30.01 30.01      
Jun 24 04:53 WSW 3 10 Clear CLR 80 73     79%   84 30.01 30.01      
Jun 24 03:53 WNW 3 10 Clear CLR 80 72     76%   84 30.01 30.02      
Jun 24 02:53 N 5 10 Clear CLR 81 73     77%   86 30.02 30.02      
Jun 24 01:53 NNE 5 10 Clear CLR 82 73     74%   87 30.02 30.03      
Jun 24 00:53 NNW 6 10 Clear CLR 83 73     72%   89 30.03 30.03      
Jun 23 23:53 NW 6 10 Clear CLR 83 73     72%   89 30.04 30.04      
Jun 23 22:53 WNW 8 10 Clear CLR 84 72     67%   90 30.03 30.03      
Jun 23 21:53 W 7 10 Clear CLR 84 73     70%   90 30.02 30.03      
Jun 23 20:53 WNW 8 10 Clear CLR 86 70     59%   91 30.03 30.03      
Jun 23 19:53 WNW 9 10 Clear CLR 88 69     54%   92 30.01 30.02      
Jun 23 18:53 W 10 10 Clear CLR 91 66     44%   94 30.01 30.02      
Jun 23 17:53 W 13 10 Clear CLR 93 64     38%   95 30.01 30.02      
Jun 23 16:53 WSW 10 10 Clear CLR 93 66     41%   96 30.02 30.02      
Jun 23 15:53 W 11 10 Mostly Clear FEW070 94 64     37%   96 30.03 30.03      
Jun 23 14:53 WNW 10 10 Clear CLR 95 63     35%   96 30.05 30.05      
Jun 23 13:53 NW 9 10 Clear CLR 95        %     30.06 30.07      
Jun 23 12:53 W 6 10 Mostly Clear FEW043 91 68     47%   95 30.07 30.08      
Jun 23 11:53 3 10 Mostly Clear FEW039 91 66     44%   94 30.09 30.09      
Jun 23 10:53 Calm 10 Clear CLR 90 68     49%   94 30.09 30.09      
Jun 23 09:53 3 10 Clear CLR 86 70     59%   91 30.09 30.09      
Jun 23 08:53 ENE 6 9 Clear CLR 82 73     74%   87 30.1 30.11      
Jun 23 07:53 ENE 3 9 Clear CLR 81 72     74%   85 30.1 30.1      
Jun 23 06:53 Calm 9 Partly Cloudy SCT039 77 72     84%   78 30.09 30.09      
Jun 23 05:53 ENE 3 10 Clear   78 72     82%   79 30.09 30.09      
Jun 23 04:53 Calm 10 Clear CLR 79 72     79%   82 30.08 30.09      
Jun 23 03:53 Calm 10 Clear CLR 79 72     79%   82 30.08 30.08      
Jun 23 02:53 Calm 10 Clear CLR 79 72     79%   82 30.09 30.09      
Jun 23 01:53 N 3 10 Clear CLR 82 72     72%   87 30.1 30.11      
Jun 23 00:53 NNE 3 10 Clear CLR 83 72     70%   88 30.1 30.11      
Jun 22 23:53 N 7 10 Clear CLR 83 72     70%   88 30.11 30.12      
Jun 22 22:53 NNW 7 10 Clear CLR 84 73     70%   90 30.1 30.11      
Jun 22 21:53 NNW 7 10 Clear CLR 85 73     68%   92 30.08 30.09      
Jun 22 20:53 NNW 8 10 Clear CLR 87 71     59%   93 30.08 30.08      
Jun 22 19:53 E 3 10 Clear CLR 89 69     52%   94 30.08 30.08      
Jun 22 18:53 N 5 10 Clear CLR 92 66     43%   95 30.07 30.08      
Jun 22 17:53 3 10 Clear CLR 93 67     43%   97 30.08 30.08      
Jun 22 16:53 NNE 5 10 Clear CLR 91 66     44%   94 30.09 30.09      
Jun 22 15:53 NNE 5 10 Mostly Clear FEW046 92 67     44%   95 30.1 30.1      
Jun 22 14:53 N 7 10 Clear CLR 92 68     46%   96 30.11 30.11      
Jun 22 13:53 NW 7 10 Mostly Cloudy BKN043 BKN050 91 67     45%   94 30.13 30.13      
Jun 22 12:53 3 10 Mostly Cloudy BKN038 90 68     49%   94 30.13 30.14      
Jun 22 11:53 Calm 10 Clear CLR 90 68     49%   94 30.14 30.14      
Jun 22 10:53 Calm 10 Clear CLR 87 69     55%   91 30.13 30.14      
Jun 22 09:53 E 5 10 Clear CLR 85 70     61%   89 30.12 30.13      
Jun 22 08:53 ENE 5 10 Clear CLR 83 72     70%   88 30.14 30.14      
Jun 22 07:53 Calm 9 Mostly Cloudy BKN043 81 73     77%   86 30.13 30.13      
Jun 22 06:53 Calm 8 Clear CLR 77 73     88%   79 30.11 30.11      
Jun 22 05:53 Calm 10 Clear CLR 78 73     85%   80 30.08 30.09      
Jun 22 04:53 Calm 10 Clear CLR 79 73     82%   82 30.07 30.08      
Jun 22 03:53 Calm 10 Clear CLR 78 73     85%   80 30.07 30.08      
Jun 22 02:53 Calm 10 Clear CLR 80 73     79%   84 30.08 30.09      
Jun 22 01:53 SE 3 10 Clear CLR 79 73     82%   82 30.1 30.1      
Jun 22 00:53 Calm 10 Clear CLR 83 72     70%   88 30.1 30.1      
Jun 21 23:53 NW 6 10 Clear CLR 83 72     70%   88 30.11 30.11      
May 14 11:53 SSW 6 5 Light Rain and Fog/Mist SCT100 OVC120 75 72     90%   76 29.93 29.94 0    
May 14 05:53 SE 5 8 Light Rain SCT006 BKN011 OVC030 71 70     96%   72 29.93 29.93 0    
May 13 13:07 E 8 9 Clear   75 71     88%   76 30.03   0    
Notice The following observation data may not be complete
May 12 19:53   10 Clear CLR          %              
May 12 16:53 ENE 13 10 Clear CLR 83 63     51%   84 30.04 30.04      
May 12 12:53 NE 7 8 Cloudy OVC100 81 65     58%   83 30.12 30.12      
May 12 05:53 Calm 7 Clear CLR 72 62     71%   72 30.07 30.07 0    
May 12 02:53 Calm 7 Clear CLR 74 60     62%   74 30.07 30.07      
May 12 01:53 Calm 6 Haze CLR 75 58     55%   75 30.08 30.09      
May 12 00:53 S 3 7 Clear CLR 77 57     50%   77 30.1 30.11      
Jun 11 18:29 E 11 9 Clear   76 72     88%   77 30.07   0    
Jun 11 17:32 3 6 Cloudy SCT048 BKN090 OVC110 83 75     77%   90 30.05   0    
Jun 11 15:53 SE 9 10 Clear   90 77     66%   103 30.07 30.08      
Jun 11 06:44 E 5 6 Fog/Mist SCT005 77 77     100%   79 30.08        
Jun 10 22:53 E 5 10 Clear   75 75     100%   77 30.08 30.08      
Jun 10 00:18 Calm 10 Light Rain BKN024 OVC034 79 76     90%   83 29.96   0    
Jun 09 21:53 SSW 3 10 Clear CLR 82 71     69%   86 29.94 29.95      
Jun 09 07:53 ENE 9 8 Mostly Cloudy BKN006 75 74     96%   77 29.9 29.91      
Notice The following observation data may not be complete
Jun 06 14:53     Clear            %     29.77 29.78 0    
Notice The following observation data may not be complete
Jun 06 13:43   10 Cloudy FEW011 OVC017          %         0    
Jun 05 16:53 NNW 7 10 Cloudy FEW010 BKN041 OVC110 76 75     97%   78 29.9 29.91 0 0